DW6801 Weather Reports


time (UTC)temp
C
wind
direction
speed
KPH
gust
KPH
rain 1hr
cm
rain 24hr
cm
rain mn
cm
humidity
%
barometer
mb
20260904224017 13 298 22.5 46.7 0.00 2.24 0.00 89 1001.3
20260904223517 13 292 22.5 46.7 0.00 2.24 0.00 90 1001.2
20260904223037 13 309 16.1 30.6 0.00 2.24 0.00 90 1001.2
20260904222519 13 238 14.5 38.6 0.00 2.24 0.00 90 1001.2
20260904222017 13 280 17.7 38.6 0.00 2.24 0.00 90 1001.1
20260904221534 13 273 20.9 38.6 0.00 2.24 0.00 90 1000.9
20260904221012 13 259 24.1 38.6 0.00 2.24 0.00 90 1000.9
20260904220511 13 272 16.1 35.4 0.00 2.24 0.00 90 1000.9
20260904220027 13 281 14.5 32.2 0.00 2.24 0.00 90 1000.9
20260904215503 13 260 17.7 32.2 0.00 2.24 2.24 90 1000.8
20260904215005 13 244 16.1 33.8 0.00 2.24 2.24 90 1000.8
20260904214508 13 269 19.3 33.8 0.00 2.24 2.24 90 1000.8
20260904214010 13 259 14.5 32.2 0.00 2.24 2.24 91 1000.8
20260904213510 13 243 16.1 29.0 0.00 2.24 2.24 91 1000.7
20260904213016 13 255 16.1 30.6 0.00 2.24 2.24 91 1000.7
20260904212512 13 248 16.1 32.2 0.00 2.24 2.24 91 1000.6
20260904212011 13 306 12.9 32.2 0.00 2.24 2.24 92 1000.6
20260904211533 13 302 14.5 27.4 0.00 2.24 2.24 92 1000.5
20260904211003 13 225 11.3 29.0 0.00 2.24 2.24 92 1000.5
20260904210504 13 240 14.5 29.0 0.00 2.24 2.24 92 1000.5
20260904210006 13 269 9.7 38.6 0.00 2.24 2.24 92 1000.5
20260904205501 13 266 19.3 38.6 0.00 2.24 2.24 92 1000.5
20260904205005 13 247 12.9 27.4 0.00 2.24 2.24 1000.5
20260904204507 13 241 16.1 33.8 0.00 2.24 2.24 1000.3
20260904204010 13 284 19.3 33.8 0.00 2.24 2.24 1000.3
20260904203510 13 241 17.7 32.2 0.00 2.24 2.24 1000.4
20260904203027 13 273 9.7 32.2 0.00 2.24 2.24 94 1000.3
20260904202509 13 250 12.9 29.0 0.00 2.24 2.24 94 1000.3
20260904202013 13 262 9.7 24.1 0.03 2.24 2.24 94 1000.2
20260904201530 13 235 9.7 25.7 0.08 2.24 2.24 93 1000.2
20260904201005 13 269 9.7 27.4 0.13 2.24 2.24 93 1000.2
20260904200504 13 275 16.1 27.4 0.20 2.24 2.24 93 1000.1
20260904200008 13 275 14.5 25.7 0.25 2.24 2.24 93 1000.2
20260904195507 13 244 17.7 29.0 0.33 2.24 2.24 93 1000.1
20260904195004 13 273 14.5 29.0 0.36 2.24 2.24 93 1000.0
20260904194525 13 239 16.1 27.4 0.36 2.24 2.24 93 1000.0
20260904194011 13 268 14.5 24.1 0.36 2.24 2.24 93 1000.0
20260904193512 13 258 16.1 24.1 0.36 2.24 2.24 93 999.8
20260904193034 13 267 12.9 19.3 0.36 2.24 2.24 93 999.8
20260904192514 13 254 12.9 19.3 0.36 2.21 2.21 93 999.7
20260904192014 13 267 14.5 19.3 0.33 2.18 2.18 93 999.6
20260904191528 13 260 8.0 22.5 0.28 2.16 2.16 93 999.6
20260904191003 13 257 9.7 22.5 0.23 2.08 2.08 93 999.6
20260904190503 14 252 12.9 20.9 0.15 2.01 2.01 93 999.7
20260904190011 14 213 11.3 16.1 0.10 1.96 1.96 93 999.6
20260904185506 14 236 8.0 12.9 0.03 1.88 1.88 93 999.5
20260904185008 14 250 6.4 12.9 0.00 1.88 1.88 93 999.4
20260904184514 14 252 6.4 11.3 0.00 1.88 1.88 93 999.3
20260904184012 14 240 6.4 9.7 0.00 1.88 1.88 93 999.3
20260904183514 14 219 4.8 16.1 0.00 1.88 1.88 93 999.3
20260904183023 14 242 6.4 16.1 0.00 1.85 1.85 93 999.3
20260904182513 14 257 9.7 14.5 0.00 1.85 1.85 93 999.4
20260904182020 14 248 6.4 14.5 0.00 1.85 1.85 93 999.4
20260904181506 14 252 6.4 14.5 0.00 1.85 1.85 93 999.4
20260904181003 14 237 8.0 16.1 0.00 1.85 1.85 92 999.3
20260904180508 14 246 9.7 17.7 0.00 1.85 1.85 92 999.3
20260904180008 14 235 11.3 19.3 0.00 1.85 1.85 92 999.3
20260904175508 14 247 12.9 19.3 0.00 1.85 1.85 92 999.5
20260904175008 14 254 8.0 16.1 0.00 1.85 1.85 92 999.3
20260904174516 14 244 8.0 16.1 0.00 1.85 1.85 92 999.3
20260904174011 14 252 8.0 19.3 0.00 1.85 1.85 92 999.4
20260904173514 15 250 11.3 19.3 0.00 1.85 1.85 92 999.5
20260904173035 15 252 12.9 17.7 0.00 1.85 1.85 93 999.5
20260904172514 15 227 8.0 16.1 0.00 1.85 1.85 93 999.5
20260904172016 15 245 9.7 12.9 0.00 1.85 1.85 93 999.5
20260904171504 15 236 8.0 14.5 0.00 1.85 1.85 93 999.5
20260904171004 15 262 6.4 14.5 0.00 1.85 1.85 92 999.3
20260904170506 15 244 9.7 17.7 0.00 1.85 1.85 92 999.3
20260904170009 15 250 9.7 17.7 0.00 1.85 1.85 92 999.2
20260904165508 15 265 3.2 12.9 0.00 1.85 1.85 92 999.1
20260904165012 15 254 8.0 16.1 0.00 1.85 1.85 92 999.1
20260904164518 15 246 11.3 16.1 0.00 1.85 1.85 92 999.1
20260904164017 15 246 9.7 12.9 0.00 1.85 1.85 92 999.3
20260904163512 15 225 8.0 17.7 0.00 1.85 1.85 92 999.3
20260904163027 15 227 9.7 17.7 0.00 1.85 1.85 92 999.4
20260904162517 15 249 9.7 20.9 0.00 1.85 1.85 91 999.4
20260904162007 15 211 12.9 20.9 0.00 1.85 1.85 92 999.5
20260904161506 15 236 9.7 19.3 0.00 1.85 1.85 91 999.4
20260904161008 15 253 8.0 14.5 0.00 1.85 1.85 92 999.4
20260904160510 15 226 8.0 16.1 0.00 1.85 1.85 92 999.3
20260904160016 15 258 8.0 16.1 0.00 1.85 1.85 92 999.4
20260904155512 15 246 8.0 17.7 0.00 1.85 1.85 92 999.4
20260904155012 15 261 8.0 17.7 0.00 1.85 1.85 92 999.5
20260904154522 15 255 9.7 12.9 0.00 1.85 1.85 92 999.5
20260904154015 15 303 8.0 14.5 0.00 1.85 1.85 92 999.5
20260904153517 15 248 9.7 14.5 0.00 1.85 1.85 92 999.5
20260904153028 15 243 11.3 14.5 0.00 1.85 1.85 92 999.5
20260904152515 15 258 6.4 17.7 0.00 1.85 1.85 92 999.4
20260904152005 15 258 8.0 17.7 0.00 1.85 1.85 91 999.4
20260904151512 15 260 8.0 20.9 0.00 1.85 1.85 91 999.4
20260904151010 15 249 12.9 20.9 0.00 1.85 1.85 90 999.5
20260904150508 15 244 16.1 20.9 0.00 1.85 1.85 90 999.5
20260904150017 16 256 12.9 20.9 0.03 1.85 1.85 89 999.6
20260904145513 16 299 9.7 22.5 0.05 1.85 1.85 90 999.5
20260904145012 16 255 17.7 22.5 0.05 1.88 1.85 90 999.4
20260904144526 16 258 9.7 22.5 0.05 2.06 1.85 91 999.4
20260904144014 16 234 14.5 22.5 0.05 2.06 1.85 93 999.4
20260904143515 15 244 12.9 17.7 0.08 2.06 1.85 93 999.4
20260904143033 15 250 8.0 11.3 0.33 2.06 1.85 93 999.3
20260904142506 15 251 4.8 11.3 0.38 2.06 1.85 94 999.5
20260904142009 15 242 8.0 12.9 0.43 2.06 1.85 94 999.5
20260904141511 14 252 6.4 12.9 0.46 2.06 1.83 93 999.7
20260904141012 14 258 4.8 14.5 0.56 2.06 1.83 93 999.7
20260904140510 14 281 8.0 19.3 0.81 2.06 1.83 93 999.8
20260904140020 14 281 11.3 19.3 0.99 2.03 1.80 93 999.7
20260904135515 15 232 14.5 19.3 1.12 2.01 1.78 93 999.7
20260904135020 15 235 8.0 17.7 1.19 2.01 1.78 94 999.8
20260904134526 15 229 11.3 17.7 1.27 2.01 1.78 94 999.8
20260904134015 15 259 6.4 17.7 1.30 2.01 1.78 94 999.6
20260904133515 15 284 4.8 16.1 1.30 1.96 1.75 93 999.6
20260904133030 15 254 11.3 16.1 1.04 1.73 1.50 93 999.7
20260904132508 15 266 4.8 11.3 1.02 1.68 1.45 93 999.6
20260904132010 15 256 4.8 14.5 1.02 1.63 1.40 93 999.6
20260904131514 15 271 6.4 14.5 0.97 1.57 1.35 93 999.7
20260904131011 15 251 6.4 16.1 0.94 1.50 1.27 93 999.8
20260904130513 15 281 6.4 16.1 0.69 1.22 1.02 93 1000.0
20260904130026 15 258 9.7 16.1 0.51 1.02 0.81 93 1000.0
20260904125516 15 236 6.4 9.7 0.38 0.89 0.66 93 999.9
20260904125015 15 226 1.6 11.3 0.30 0.81 0.58 93 999.8
20260904124528 15 246 4.8 14.5 0.25 0.74 0.51 93 1000.1
20260904124013 15 254 3.2 16.1 0.23 0.69 0.46 93 1000.0
20260904123519 15 227 8.0 16.1 0.23 0.66 0.46 93 1000.2
20260904123030 15 232 6.4 14.5 0.23 0.66 0.46 93 1000.3
20260904122513 15 261 4.8 14.5 0.23 0.64 0.43 92 1000.4
20260904122015 15 263 6.4 17.7 0.18 0.61 0.38 92 1000.5
20260904121528 15 223 9.7 17.7 0.18 0.58 0.36 92 1000.5
20260904121016 15 239 8.0 16.1 0.18 0.56 0.33 92 1000.6
20260904120513 15 221 4.8 16.1 0.15 0.56 0.30 92 1000.7
20260904120037 15 180 6.4 16.1 0.13 0.53 0.28 92 1000.7
20260904115515 15 250 8.0 16.1 0.13 0.51 0.28 92 1000.7
20260904115014 15 218 8.0 14.5 0.15 0.51 0.28 92 1000.7
20260904114533 15 257 6.4 16.1 0.13 0.48 0.25 92 1000.8
20260904114015 15 245 9.7 16.1 0.13 0.46 0.23 92 1000.9
20260904113516 15 240 8.0 16.1 0.13 0.46 0.20 92 1000.9
20260904113028 15 228 6.4 14.5 0.13 0.46 0.20 92 1000.9
20260904112515 15 246 8.0 29.0 0.10 0.43 0.18 92 1000.9
20260904112009 15 217 6.4 29.0 0.10 0.43 0.18 92 1000.8
20260904111526 15 174 6.4 14.5 0.08 0.41 0.18 92 1000.9
20260904111022 15 207 4.8 17.7 0.08 0.41 0.15 92 1000.9
20260904110516 15 207 9.7 17.7 0.08 0.41 0.15 92 1000.9
20260904110031 15 216 4.8 16.1 0.08 0.41 0.15 92 1001.1
20260904105517 15 233 4.8 14.5 0.05 0.38 0.13 92 1001.1
20260904105014 15 177 4.8 16.1 0.05 0.38 0.10 92 1001.1
20260904104531 15 162 6.4 16.1 0.05 0.38 0.10 91 1001.1
20260904104015 15 163 4.8 14.5 0.05 0.36 0.08 91 1001.2
20260904103518 15 202 8.0 16.1 0.03 0.36 0.08 91 1001.3
20260904103016 15 247 8.0 16.1 0.05 0.36 0.08 91 1001.4
20260904102510 15 191 8.0 16.1 0.05 0.36 0.08 92 1001.5
20260904102013 15 181 9.7 16.1 0.05 0.36 0.08 91 1001.6
20260904101528 15 215 6.4 14.5 0.05 0.38 0.08 92 1001.6
20260904101013 15 173 4.8 12.9 0.05 0.38 0.08 92 1001.8
20260904100519 15 199 4.8 14.5 0.05 0.38 0.08 92 1001.9
20260904100031 15 175 6.4 14.5 0.08 0.41 0.08 92 1002.0
20260904095518 15 155 4.8 14.5 0.08 0.43 0.08 91 1002.0
20260904095015 15 172 6.4 14.5 0.05 0.43 0.05 91 1002.1
20260904094530 15 238 6.4 14.5 0.05 0.46 0.05 91 1002.2
20260904094021 15 196 4.8 12.9 0.03 0.53 0.03 91 1002.3
20260904093515 15 175 4.8 11.3 0.03 0.56 0.03 90 1002.5
20260904093021 15 226 4.8 14.5 0.00 0.56 0.00 90 1002.6
20260904092516 15 157 6.4 16.1 0.00 0.56 0.00 89 1002.6
20260904092016 15 182 8.0 16.1 0.00 0.61 0.00 89 1002.8
20260904091527 15 180 8.0 14.5 0.00 0.64 0.00 89 1002.8
20260904091017 15 187 8.0 14.5 0.00 0.64 0.00 89 1002.8
20260904090514 15 196 3.2 11.3 0.00 0.64 0.00 88 1003.0
20260904090006 15 178 4.8 12.9 0.00 0.64 0.00 88 1003.1
20260904085506 15 199 8.0 17.7 0.00 0.64 0.00 88 1003.1
20260904085010 15 199 4.8 17.7 0.00 0.64 0.00 88 1003.2
20260904084516 15 181 4.8 12.9 0.00 0.69 0.00 88 1003.3
20260904084013 15 211 6.4 14.5 0.00 0.74 0.00 88 1003.4
20260904083512 15 190 8.0 14.5 0.00 0.74 0.00 88 1003.4
20260904083032 15 240 4.8 14.5 0.00 0.74 0.00 88 1003.3
20260904082516 15 195 4.8 14.5 0.00 0.76 0.00 87 1003.5
20260904082003 15 200 4.8 14.5 0.00 0.76 0.00 88 1003.6
20260904081512 15 171 6.4 14.5 0.00 0.79 0.00 88 1003.5
20260904081004 15 177 6.4 12.9 0.00 0.79 0.00 88 1003.6
20260904080506 15 219 3.2 14.5 0.00 0.81 0.00 88 1003.7
20260904080008 15 237 6.4 14.5 0.00 0.81 0.00 89 1003.7
20260904075507 15 267 4.8 12.9 0.00 0.81 0.00 89 1003.7
20260904075009 15 216 8.0 12.9 0.00 0.84 0.00 89 1003.7
20260904074526 15 225 3.2 11.3 0.00 0.84 0.00 90 1003.6
20260904074012 15 211 4.8 8.0 0.00 0.84 0.00 90 1003.6
20260904073517 15 207 4.8 8.0 0.00 0.84 0.00 91 1003.8
20260904073034 15 214 3.2 8.0 0.00 0.84 0.00 91 1003.8
20260904072515 14 199 4.8 8.0 0.00 0.84 0.00 90 1003.8
20260904072003 14 250 3.2 12.9 0.00 0.84 0.00 91 1003.9
20260904071507 14 184 4.8 12.9 0.00 0.84 0.00 91 1004.0
20260904071008 14 226 4.8 12.9 0.00 0.84 0.00 91 1004.1
20260904070506 14 259 6.4 14.5 0.00 0.84 0.00 91 1004.1
20260904070011 14 236 6.4 14.5 0.00 0.84 0.00 91 1004.2
20260904065511 14 251 4.8 9.7 0.00 0.84 0.00 91 1004.3
20260904065012 14 244 3.2 12.9 0.00 0.84 0.00 90 1004.3
20260904064518 14 238 6.4 12.9 0.00 0.84 0.00 90 1004.3
20260904064012 14 265 3.2 12.9 0.00 0.84 0.00 89 1004.4
20260904063515 14 233 1.6 12.9 0.00 0.84 0.00 89 1004.5
20260904063027 14 251 9.7 17.7 0.00 0.84 0.00 88 1004.6
20260904062504 15 234 8.0 17.7 0.00 0.84 0.00 88 1004.6
20260904062003 15 257 9.7 16.1 0.00 0.84 0.00 88 1004.6
20260904061516 14 261 8.0 19.3 0.00 0.84 0.00 88 1004.6
20260904061008 14 210 8.0 19.3 0.00 0.84 0.00 88 1004.6
20260904060509 14 249 8.0 12.9 0.00 0.84 0.00 88 1004.6
20260904060017 14 234 6.4 17.7 0.00 0.84 0.00 88 1004.7
20260904055511 14 242 4.8 19.3 0.00 0.84 0.00 88 1004.8
20260904055011 14 233 8.0 19.3 0.00 0.84 0.00 88 1004.8
20260904054524 14 246 9.7 17.7 0.00 0.84 0.00 88 1004.9
20260904054013 14 240 9.7 14.5 0.00 0.84 0.00 88 1005.0
20260904053513 14 242 6.4 16.1 0.00 0.84 0.00 88 1005.2
20260904053029 14 284 8.0 16.1 0.00 0.84 0.00 88 1005.2
20260904052504 14 248 8.0 16.1 0.00 0.84 0.00 88 1005.2
20260904052004 14 238 9.7 16.1 0.00 0.84 0.00 88 1005.2
20260904051525 14 236 6.4 12.9 0.00 0.84 0.00 88 1005.1
20260904051008 13 243 8.0 12.9 0.00 0.86 0.00 88 1005.0
20260904050508 13 252 6.4 12.9 0.00 0.86 0.00 88 1005.2
20260904050018 13 240 8.0 12.9 0.00 0.86 0.00 88 1005.4
20260904045512 13 251 6.4 12.9 0.00 0.86 0.00 88 1005.5
20260904045016 14 256 6.4 11.3 0.00 0.89 0.00 87 1005.4
20260904044538 14 250 6.4 14.5 0.00 0.89 0.00 87 1005.3
20260904044014 14 234 8.0 17.7 0.00 0.89 0.00 87 1005.3
20260904043518 14 242 11.3 17.7 0.00 0.89 0.00 87 1005.3
20260904043031 14 288 11.3 17.7 0.00 0.89 0.00 87 1005.3
20260904042510 14 245 6.4 20.9 0.00 0.91 0.00 87 1005.3
20260904042007 14 272 12.9 20.9 0.00 0.91 0.00 87 1005.2
20260904041521 14 256 12.9 17.7 0.00 0.94 0.00 87 1005.2
20260904041010 14 253 12.9 22.5 0.00 0.94 0.00 87 1005.2
20260904040511 14 259 11.3 20.9 0.00 0.94 0.00 87 1005.2
20260904040023 14 259 11.3 20.9 0.00 0.99 0.00 88 1005.4
20260904035515 14 252 9.7 20.9 0.00 0.99 0.00 88 1005.5
20260904035016 14 250 8.0 20.9 0.00 1.04 0.00 88 1005.5
20260904034530 14 250 12.9 25.7 0.00 1.04 0.00 87 1005.6
20260904034014 14 237 12.9 25.7 0.00 1.04 0.00 87 1005.5
20260904033518 14 245 11.3 24.1 0.00 1.04 0.00 88 1005.5
20260904033009 14 261 14.5 24.1 0.00 1.04 0.00 88 1005.7
20260904032507 14 256 11.3 20.9 0.00 1.04 0.00 88 1005.6
20260904032012 14 269 11.3 22.5 0.00 1.04 0.00 88 1005.7
20260904031515 15 264 11.3 22.5 0.00 1.04 0.00 88 1005.8
20260904031014 15 248 12.9 22.5 0.00 1.04 0.00 87 1005.8
20260904030512 15 249 14.5 30.6 0.00 1.04 0.00 87 1005.9
20260904030029 15 235 19.3 30.6 0.00 1.04 0.00 88 1005.6
20260904025512 15 261 11.3 20.9 0.00 1.04 0.00 88 1005.7
20260904025016 15 225 9.7 20.9 0.00 1.04 0.00 88 1005.6
20260904024530 15 272 16.1 20.9 0.00 1.04 0.00 87 1005.7
20260904024020 15 237 12.9 22.5 0.00 1.04 0.00 88 1005.7
20260904023523 15 254 12.9 25.7 0.00 1.04 0.00 87 1006.0
20260904023011 15 236 12.9 25.7 0.00 1.04 0.00 87 1005.9
20260904022510 15 257 14.5 29.0 0.00 1.04 0.00 88 1005.8
20260904022012 15 250 22.5 29.0 0.00 1.04 0.00 88 1006.0
20260904021517 15 254 12.9 29.0 0.00 1.04 0.00 89 1006.1
20260904021012 15 262 12.9 29.0 0.00 1.04 0.00 89 1006.2
20260904020511 15 241 11.3 20.9 0.00 1.04 0.00 89 1006.4
20260904020038 15 249 14.5 20.9 0.00 1.04 0.00 89 1006.3
20260904015514 15 275 11.3 24.1 0.00 1.04 0.00 89 1006.3
20260904015018 15 242 12.9 27.4 0.00 1.04 0.00 89 1006.4
20260904014530 15 252 14.5 27.4 0.00 1.04 0.00 89 1006.4
20260904014021 15 256 11.3 24.1 0.00 1.04 0.00 89 1006.4
20260904013505 15 259 14.5 24.1 0.00 1.04 0.00 89 1006.2
20260904013014 15 242 14.5 24.1 0.00 1.04 0.00 89 1006.3
20260904012514 15 256 14.5 24.1 0.00 1.04 0.00 89 1006.2
20260904012010 15 266 17.7 24.1 0.00 1.04 0.00 89 1006.3
20260904011519 15 254 14.5 20.9 0.00 1.04 0.00 89 1006.4
20260904011013 15 268 12.9 27.4 0.00 1.04 0.00 89 1006.5
20260904010513 15 252 12.9 27.4 0.00 1.04 0.00 89 1006.5
20260904010042 15 263 11.3 24.1 0.00 1.04 0.00 89 1006.4
20260904005515 15 236 16.1 29.0 0.00 1.04 0.00 89 1006.5
20260904005016 15 265 11.3 29.0 0.00 1.04 0.00 89 1006.6
20260904004530 15 264 14.5 27.4 0.00 1.04 0.00 89 1006.7
20260904004019 15 248 16.1 27.4 0.00 1.04 0.00 89 1006.6
20260904003509 15 250 17.7 22.5 0.00 1.04 0.00 89 1006.8
20260904003016 15 250 12.9 22.5 0.00 1.04 0.00 89 1006.8
20260904002511 15 255 12.9 22.5 0.00 1.04 0.00 89 1006.8
20260904002015 15 254 11.3 20.9 0.00 1.04 0.00 89 1006.8
20260904001523 15 254 12.9 27.4 0.00 1.04 0.00 89 1006.7
20260904001020 15 263 12.9 24.1 0.00 1.04 0.00 89 1006.5
20260904000518 15 265 9.7 19.3 0.00 1.04 0.00 89 1006.5
20260904000032 15 265 12.9 19.3 0.00 1.04 0.00 89 1006.6
20260903235513 15 257 11.3 19.3 0.00 1.04 0.00 89 1006.6
20260903235018 15 249 8.0 19.3 0.00 1.04 0.00 89 1006.7
20260903234531 15 303 9.7 19.3 0.00 1.04 0.00 89 1006.7
20260903234015 15 259 6.4 19.3 0.00 1.04 0.00 89 1006.9
20260903233509 15 261 12.9 20.9 0.00 1.04 0.00 89 1007.0
20260903233020 15 244 12.9 20.9 0.00 1.04 0.00 89 1006.9
20260903232514 15 256 9.7 20.9 0.00 1.04 0.00 89 1006.9
20260903232014 15 248 11.3 19.3 0.00 1.04 0.00 89 1006.9
20260903231524 15 252 12.9 27.4 0.00 1.04 0.00 89 1006.8
20260903231014 15 236 11.3 27.4 0.00 1.04 0.00 89 1006.9
20260903230514 15 248 14.5 24.1 0.00 1.04 0.00 89 1006.9
20260903230038 15 269 9.7 20.9 0.00 1.04 0.00 89 1006.9
20260903225525 15 275 9.7 25.7 0.00 1.04 0.00 89 1007.0
20260903225019 15 257 17.7 27.4 0.00 1.04 0.00 89 1007.1
20260903224531 15 261 14.5 27.4 0.00 1.04 0.00 89 1007.2